TimeEST,TemperatureF,Dew PointF,Humidity,Sea Level PressureIn,VisibilityMPH,Wind Direction,Wind SpeedMPH,Gust SpeedMPH,PrecipitationIn,Events,Conditions,WindDirDegrees,DateUTC
12:35 AM,-9999,-9999,N/A,30.26,10.0,Calm,Calm,-,N/A,,Clear,0,2012-12-07 05:35:00
12:55 AM,-9999,-9999,N/A,30.27,10.0,SW,3.5,-,N/A,,Clear,220,2012-12-07 05:55:00
1:15 AM,-9999,-9999,N/A,30.27,10.0,Calm,Calm,-,N/A,,Clear,0,2012-12-07 06:15:00
1:35 AM,-9999,-9999,N/A,30.27,10.0,Calm,Calm,-,N/A,,Clear,0,2012-12-07 06:35:00
1:55 AM,-9999,-9999,N/A,30.28,10.0,Calm,Calm,-,N/A,,Clear,0,2012-12-07 06:55:00
2:15 AM,-9999,-9999,N/A,30.27,10.0,Calm,Calm,-,N/A,,Clear,0,2012-12-07 07:15:00
2:35 AM,-9999,-9999,N/A,30.26,10.0,Calm,Calm,-,N/A,,Clear,0,2012-12-07 07:35:00
2:55 AM,-9999,-9999,N/A,30.26,10.0,Calm,Calm,-,N/A,,Clear,0,2012-12-07 07:55:00
3:15 AM,-9999,-9999,N/A,30.25,10.0,Calm,Calm,-,N/A,,Clear,0,2012-12-07 08:15:00
3:35 AM,-9999,-9999,N/A,30.25,10.0,Calm,Calm,-,N/A,,Clear,0,2012-12-07 08:35:00
3:55 AM,-9999,-9999,N/A,30.24,10.0,Calm,Calm,-,N/A,,Clear,0,2012-12-07 08:55:00
4:15 AM,-9999,-9999,N/A,30.23,10.0,Calm,Calm,-,N/A,,Clear,0,2012-12-07 09:15:00
4:35 AM,-9999,-9999,N/A,30.23,10.0,Calm,Calm,-,N/A,,Clear,0,2012-12-07 09:35:00
4:55 AM,-9999,-9999,N/A,30.22,10.0,Calm,Calm,-,N/A,,Clear,0,2012-12-07 09:55:00
5:15 AM,-9999,-9999,N/A,30.23,10.0,SW,3.5,-,N/A,,Clear,230,2012-12-07 10:15:00
5:45 AM,-9999,-9999,N/A,30.23,10.0,Calm,Calm,-,N/A,,Mostly Cloudy,0,2012-12-07 10:45:00
6:45 AM,-9999,-9999,N/A,30.21,10.0,Calm,Calm,-,N/A,,Mostly Cloudy,0,2012-12-07 11:45:00
7:45 AM,-9999,-9999,N/A,30.23,10.0,Calm,Calm,-,N/A,,Overcast,0,2012-12-07 12:45:00
8:45 AM,-9999,-9999,N/A,30.22,10.0,Calm,Calm,-,N/A,,Scattered Clouds,0,2012-12-07 13:45:00
9:45 AM,-9999,-9999,N/A,30.12,10.0,Calm,Calm,-,N/A,,Mostly Cloudy,0,2012-12-07 14:45:00
10:45 AM,-9999,-9999,N/A,30.18,10.0,Calm,Calm,-,N/A,,Mostly Cloudy,0,2012-12-07 15:45:00
11:45 AM,-9999,-9999,N/A,30.17,10.0,SW,5.8,-,N/A,,Overcast,220,2012-12-07 16:45:00
12:45 PM,-9999,-9999,N/A,30.15,6.0,SW,4.6,-,N/A,,Overcast,220,2012-12-07 17:45:00
1:45 PM,37.4,37.4,100,30.12,3.0,SSW,3.5,-,N/A,Rain,Light Rain,200,2012-12-07 18:45:00
3:45 PM,39.2,39.2,100,30.10,3.0,South,6.9,-,N/A,,Overcast,190,2012-12-07 20:45:00
4:25 PM,39.2,37.4,93,30.10,2.0,SSW,4.6,-,N/A,,Overcast,200,2012-12-07 21:25:00
4:45 PM,39.2,39.2,100,30.10,1.0,SW,4.6,-,N/A,Rain,Light Rain,220,2012-12-07 21:45:00
5:45 PM,39.2,39.2,100,30.08,2.0,SW,5.8,-,N/A,Rain,Light Rain,220,2012-12-07 22:45:00
6:45 PM,39.2,37.4,93,30.09,2.0,SW,4.6,-,N/A,Rain,Light Rain,230,2012-12-07 23:45:00
7:45 PM,39.2,37.4,93,30.09,1.0,SW,4.6,-,N/A,Rain,Light Rain,230,2012-12-08 00:45:00
10:15 PM,41.0,41.0,100,30.07,1.0,Calm,Calm,-,N/A,,Overcast,0,2012-12-08 03:15:00
10:55 PM,41.0,41.0,100,30.06,2.0,Calm,Calm,-,N/A,,Overcast,0,2012-12-08 03:55:00
11:15 PM,41.0,41.0,100,30.05,3.0,Calm,Calm,-,N/A,,Overcast,0,2012-12-08 04:15:00
11:35 PM,41.0,41.0,100,30.05,2.0,Calm,Calm,-,N/A,,Overcast,0,2012-12-08 04:35:00
11:55 PM,39.2,39.2,100,30.04,1.5,Calm,Calm,-,0.01,,Overcast,0,2012-12-08 04:55:00